Theta_e
309 304 302 307 314 317 317 315 315 315 321 322 320 320 319 323 320 325 327 331 334 326 325 326 327 326 329 330 335 335 338 337 337 336 336 337 338 337 335 335 336 337 335 339 341 342 342 343 344 343 343 348 351 355 357 358 358 360 359 361 358 359 363 360 361 361 360 359 361 360 357 356 358 362 363 361 363 362 364 366 367 366 365 367 367 368
308 303 303 309 316 319 319 316 313 312 316 319 317 319 318 320 316 323 325 331 333 325 324 328 323 324 328 331 332 337 336 333 335 336 336 336 338 337 337 338 337 340 340 342 342 341 342 343 344 345 348 352 351 354 357 358 358 359 360 359 358 359 361 361 361 361 362 363 360 358 358 355 355 358 357 359 362 361 363 368 367 369 369 367 369 370
303 301 305 310 318 317 315 314 312 312 317 320 319 319 314 314 321 325 331 334 335 330 324 324 323 325 330 333 334 335 335 336 338 339 338 336 337 338 338 340 340 338 340 341 342 341 342 344 343 346 348 350 352 353 355 358 358 358 359 361 361 359 359 360 363 363 362 363 364 360 358 357 355 360 362 359 362 363 362 364 368 370 370 369 371 372
299 303 309 316 316 315 314 311 310 309 313 319 319 316 314 319 316 316 324 332 331 329 324 326 324 325 330 331 335 337 337 337 339 341 340 340 338 338 338 341 340 339 340 339 341 340 342 344 344 346 348 350 351 354 354 355 357 357 360 362 363 362 360 361 362 363 362 363 366 366 367 365 362 359 362 363 362 364 364 361 363 368 368 368 368 369
303 307 314 316 316 315 312 311 309 309 308 309 313 317 313 320 319 319 321 328 328 329 328 327 323 323 326 326 330 335 339 338 338 339 340 340 342 343 344 343 343 341 342 341 341 342 343 343 343 346 349 350 350 351 353 354 354 353 358 362 364 363 360 362 363 362 363 363 364 365 365 367 363 362 361 359 357 360 362 361 362 363 367 367 370 369
306 312 316 314 315 315 313 309 308 309 307 307 308 311 318 321 319 318 325 323 321 319 324 323 313 315 322 326 327 332 332 330 334 333 334 338 340 342 341 342 344 345 345 343 343 342 342 344 346 348 349 349 350 351 353 354 353 354 357 362 364 363 362 360 363 363 364 362 361 361 361 357 358 358 354 353 356 356 355 357 361 365 363 365 369 370
308 313 313 311 313 314 312 310 310 309 306 305 306 311 313 318 320 322 322 320 315 312 322 324 313 308 323 321 325 328 329 330 333 333 333 335 339 341 340 340 341 343 342 344 345 343 342 344 346 347 349 349 349 352 353 354 354 354 358 362 363 364 363 361 364 364 364 363 363 363 360 358 358 356 357 361 361 358 358 363 361 365 365 368 367 367
310 311 310 311 312 312 310 309 310 309 306 305 306 308 310 314 317 317 319 320 318 322 325 323 319 315 314 321 328 331 330 331 332 334 335 334 337 339 341 339 341 342 343 342 344 344 344 344 345 346 349 349 349 351 352 353 354 356 361 363 363 364 364 363 364 364 363 363 362 363 361 360 359 356 358 361 362 363 365 361 363 363 364 366 367 366
309 308 309 309 310 310 309 312 310 310 307 306 304 306 308 311 317 315 314 314 317 315 315 318 323 314 314 323 329 329 326 329 330 333 335 336 337 339 341 339 340 343 344 344 343 344 344 345 344 347 348 349 349 349 350 353 354 356 360 364 364 364 365 364 365 364 362 364 363 364 363 361 361 361 361 362 363 363 363 364 363 366 365 366 367 366
310 311 310 312 310 308 312 313 311 309 306 310 312 314 314 314 316 316 315 315 317 312 308 318 320 312 313 322 322 328 327 327 329 332 334 335 337 338 339 341 341 342 344 344 345 345 346 347 346 347 348 347 347 348 351 352 354 355 359 362 363 364 364 365 366 364 364 364 364 363 363 362 360 362 364 362 362 364 364 363 364 366 366 363 364 368
311 315 315 312 309 312 314 313 312 312 311 316 318 316 315 314 317 317 318 318 316 307 309 318 320 316 308 318 320 320 322 328 330 332 334 335 336 337 340 343 341 342 343 344 345 346 346 348 348 347 345 348 348 349 349 350 353 355 355 359 361 364 363 365 366 364 363 363 363 363 364 363 363 362 362 360 362 363 364 362 362 364 366 365 364 364
309 311 310 312 314 313 314 310 313 313 314 315 311 312 311 311 315 314 316 319 307 303 314 319 319 319 307 316 322 326 330 331 332 330 332 333 335 336 340 342 343 343 343 344 344 345 346 347 348 348 347 347 348 348 349 349 352 354 355 357 360 363 364 364 365 364 362 361 362 363 363 364 364 363 360 361 360 359 361 361 360 364 365 365 365 366
305 306 310 311 315 312 310 308 308 311 313 312 311 310 302 302 305 303 312 302 303 304 313 316 319 316 314 320 323 326 329 330 334 334 333 334 335 336 340 343 344 344 343 344 344 345 344 344 345 346 348 349 349 349 350 349 350 353 355 357 358 361 364 365 364 363 364 362 362 362 362 363 364 365 364 362 361 362 362 362 362 362 363 365 364 363
302 308 308 309 310 313 312 305 303 305 311 311 310 307 301 298 299 296 301 305 307 311 316 316 322 312 319 321 327 326 329 331 333 335 337 337 337 338 339 341 344 344 344 344 344 345 345 345 345 347 348 348 349 350 350 350 351 352 353 357 356 361 363 365 363 363 363 363 363 364 363 362 363 364 363 362 361 361 363 364 363 360 358 362 362 362
296 297 304 307 303 312 310 309 308 307 308 310 314 310 304 303 299 296 300 298 301 306 311 319 312 309 310 317 327 329 331 332 333 335 338 339 340 341 341 341 343 344 345 345 345 344 344 345 347 346 347 348 351 350 351 350 353 355 355 358 359 360 362 364 364 363 363 362 363 363 363 362 363 361 360 362 362 363 362 361 362 363 361 359 362 362
299 300 306 311 310 311 308 311 312 309 307 310 312 315 307 304 310 301 306 305 304 308 309 312 309 318 317 328 331 333 332 331 333 335 337 339 341 341 340 341 340 343 344 345 344 345 345 347 347 347 348 349 351 353 352 352 354 356 358 362 362 361 362 361 363 362 362 363 362 364 364 362 363 362 361 363 364 364 363 363 363 363 364 364 363 366
300 298 306 308 311 310 309 311 311 311 299 306 307 305 309 315 313 308 307 309 311 309 305 316 312 315 325 323 328 329 329 330 331 333 335 338 339 339 338 341 339 342 345 346 345 345 346 347 347 347 349 349 350 350 353 355 359 361 362 362 362 363 363 361 363 361 362 363 363 363 363 362 362 360 359 357 360 359 361 362 362 361 362 363 366 363
299 299 305 305 303 309 312 311 311 311 311 308 302 307 315 318 316 310 301 307 302 300 303 310 308 309 311 307 328 329 327 328 329 331 334 338 337 337 337 339 342 341 342 347 348 347 348 348 348 348 349 351 350 350 355 358 361 362 363 363 362 362 362 359 359 358 360 362 362 362 362 362 362 359 358 357 357 358 360 361 361 362 361 361 361 361
305 298 303 306 306 308 311 310 308 311 312 308 306 313 307 303 302 309 306 299 299 298 301 307 309 308 311 313 320 325 326 326 329 332 334 336 336 336 337 339 340 341 342 344 347 346 346 347 348 350 350 352 353 354 356 359 360 362 362 362 363 362 361 358 354 355 358 360 359 358 360 360 360 360 359 358 361 360 359 358 358 359 359 360 363 364
306 298 301 307 306 307 308 306 299 303 309 311 312 308 312 311 306 303 305 307 307 300 300 302 306 304 314 313 320 325 328 330 330 332 332 337 337 337 338 339 340 339 342 345 346 346 346 346 348 350 351 352 354 354 355 359 358 358 360 361 362 363 363 360 354 355 355 356 357 356 359 361 362 362 360 359 359 357 358 358 358 360 357 359 361 362
304 306 297 303 308 307 300 304 302 304 302 303 304 305 308 308 311 310 309 306 304 302 301 301 300 306 317 328 332 331 332 333 333 332 333 335 338 338 339 339 343 345 345 344 347 347 347 347 347 350 352 353 354 355 355 357 357 358 359 359 362 361 359 358 355 356 357 355 355 356 357 358 359 358 359 357 358 358 358 358 360 358 359 362 361 362
305 304 298 302 302 301 302 307 307 307 307 305 304 303 306 303 302 301 301 309 307 304 299 301 299 309 320 329 332 332 333 334 334 334 333 335 337 338 337 340 341 344 345 347 348 347 346 347 346 349 351 351 352 354 356 356 356 357 354 354 358 357 360 360 360 361 363 360 357 357 357 357 357 359 357 355 355 356 355 356 358 360 361 359 361 360
309 308 304 300 302 302 305 308 310 311 310 308 307 305 308 307 306 303 296 303 307 307 308 308 303 310 324 327 332 332 333 333 334 334 334 335 337 337 339 340 342 343 344 345 344 343 344 349 348 346 347 349 349 352 353 353 352 354 355 356 357 357 360 361 362 364 367 364 362 361 359 358 356 356 355 352 352 351 351 353 356 359 358 355 354 360
312 305 301 302 307 307 308 310 310 311 310 307 307 308 308 305 306 305 305 307 306 306 304 305 302 308 325 330 331 334 334 334 336 335 335 336 336 337 339 340 342 343 343 344 343 341 341 343 343 345 345 345 348 350 351 350 352 352 355 356 358 358 359 361 363 365 366 366 364 365 362 360 359 356 352 349 349 349 350 350 351 355 355 353 351 353
306 308 305 298 299 301 302 306 305 309 309 306 305 307 309 309 308 308 308 310 304 305 306 302 298 306 325 328 330 331 331 331 332 334 335 334 336 337 338 339 340 343 343 344 343 345 347 347 345 345 347 351 351 348 348 348 350 353 354 357 357 358 360 361 363 364 365 365 365 364 364 362 361 359 359 359 356 351 349 349 348 350 352 351 349 350
307 305 305 296 294 291 291 293 296 299 302 306 308 308 308 307 307 307 303 306 299 306 308 303 304 319 324 327 327 329 329 331 333 333 336 336 336 336 337 338 340 341 342 343 343 343 343 344 346 347 348 348 347 346 347 352 353 355 356 356 358 358 359 361 362 361 361 362 362 363 362 359 357 358 360 361 361 360 355 352 350 350 350 352 351 352
306 308 308 304 301 298 301 305 305 309 305 303 305 307 307 308 309 309 307 303 301 306 307 308 308 318 320 321 324 326 329 329 329 331 332 333 335 337 339 340 340 341 342 341 343 343 345 344 344 346 348 349 349 348 348 350 351 353 352 352 356 358 359 360 360 361 362 360 357 357 355 353 357 358 361 363 364 364 362 357 353 351 351 353 352 351
309 304 304 306 305 305 307 306 309 309 305 306 306 306 308 308 309 308 304 302 311 305 301 309 313 309 319 323 324 327 328 329 329 329 330 331 332 335 337 338 340 340 341 342 342 343 343 343 345 344 345 345 348 350 350 351 352 350 349 348 351 356 357 358 358 358 359 359 357 357 356 357 358 360 363 366 366 366 365 362 358 357 358 358 356 353
306 302 304 305 304 306 308 309 311 311 310 310 309 308 308 310 310 307 307 313 314 305 301 314 319 312 319 324 326 327 329 327 328 329 330 332 333 334 335 335 335 336 337 337 338 339 338 338 341 343 345 346 347 347 347 348 350 352 352 351 351 354 354 354 355 355 355 357 356 356 358 359 358 360 362 363 363 363 364 365 363 361 361 361 359 356
308 303 305 304 304 305 307 308 310 310 309 310 311 312 312 312 312 312 314 316 316 318 316 318 324 322 324 326 327 327 329 331 330 330 330 330 331 333 334 335 335 336 335 334 336 336 338 340 339 342 343 344 346 345 345 346 346 348 349 351 353 353 354 354 354 354 354 353 354 356 357 358 359 358 357 357 357 358 360 360 361 361 362 361 360 360
307 304 312 306 304 303 306 308 309 309 308 307 309 312 313 314 314 315 316 317 319 319 317 320 323 321 326 329 328 329 331 332 330 328 328 330 331 332 333 333 334 334 333 334 336 337 338 338 338 339 340 342 343 341 342 345 346 347 349 351 352 352 353 354 353 355 354 352 353 353 355 355 356 355 353 352 352 355 356 356 358 359 360 360 361 362
307 306 307 308 301 300 304 304 306 308 308 306 306 307 310 313 312 314 315 317 317 317 318 319 317 318 323 328 327 329 328 328 328 328 328 329 331 331 332 333 334 333 334 335 336 337 336 337 337 338 339 339 338 340 342 344 344 345 345 346 349 352 354 354 353 352 352 353 354 354 352 352 354 354 355 354 353 352 353 354 355 357 357 358 358 361
307 306 303 301 298 301 303 304 303 304 305 302 302 304 308 314 316 317 317 318 318 319 317 313 314 322 325 326 323 324 325 326 328 329 329 330 331 332 331 332 332 335 336 335 336 336 336 336 336 337 336 336 337 338 340 342 342 341 344 346 348 350 351 351 352 352 352 352 352 353 353 353 353 353 354 355 356 356 356 355 353 354 355 355 358 358
308 306 304 305 298 300 303 304 304 302 295 296 305 308 309 311 315 313 312 316 319 320 318 320 322 325 325 324 324 323 325 327 329 331 333 332 331 332 332 333 334 334 335 336 336 335 335 334 334 334 334 335 336 335 334 336 337 337 339 340 341 341 341 342 342 343 345 347 349 351 353 355 353 352 353 354 354 354 354 354 353 355 357 357 358 357
307 307 306 304 300 298 302 302 298 294 295 304 309 310 311 312 316 314 315 317 319 320 320 321 322 324 324 324 325 325 328 329 330 330 331 332 333 332 332 333 334 333 333 334 335 335 334 333 333 332 332 332 331 331 330 329 330 332 334 335 334 334 334 335 334 335 335 336 337 340 344 346 346 347 348 350 351 352 353 353 353 352 353 355 357 356
305 305 307 304 304 301 298 298 289 295 304 306 308 310 312 310 313 316 310 315 318 318 320 320 322 324 325 325 325 325 326 325 324 326 329 330 331 331 331 331 332 332 332 333 335 335 335 334 333 330 328 329 329 329 329 328 329 329 329 329 329 329 329 330 330 331 331 331 332 333 335 338 339 341 342 345 349 350 348 349 350 351 354 354 357 357
308 309 307 303 306 296 296 295 297 306 305 305 305 308 308 307 308 309 305 308 319 319 321 320 321 323 324 325 324 324 325 323 318 321 324 325 328 330 330 331 332 330 331 334 335 334 335 334 333 330 328 327 327 326 327 329 328 328 327 327 326 326 326 325 326 327 329 330 331 333 334 335 334 335 337 338 338 339 341 344 345 348 350 353 354 354
308 306 307 303 301 305 297 294 294 295 292 302 306 309 311 312 310 311 311 306 315 320 322 323 321 322 322 323 324 325 327 322 315 315 319 323 324 324 326 328 330 332 331 332 334 334 333 330 330 330 328 326 325 326 326 327 327 326 324 324 326 326 325 326 323 325 328 329 331 332 334 336 338 338 335 334 333 334 338 340 341 344 348 348 349 351
307 309 308 304 301 301 299 294 292 290 295 304 307 309 310 312 312 311 311 303 310 319 321 323 322 323 324 324 324 325 322 318 316 316 318 321 322 324 322 323 324 326 328 330 331 331 331 330 329 327 326 324 323 324 325 324 325 323 322 321 321 323 324 325 324 324 325 326 328 331 331 333 333 333 335 336 336 337 338 338 339 342 345 347 348 347
304 304 304 301 302 300 300 297 294 300 299 304 308 309 310 311 307 306 297 298 308 316 320 322 322 323 325 326 326 325 320 317 320 317 319 320 322 323 323 322 322 324 327 329 330 331 331 330 328 325 323 322 323 325 326 324 323 323 322 323 324 322 321 324 325 325 326 327 329 331 332 330 332 333 333 334 334 336 338 339 339 341 343 346 349 352
301 301 302 299 300 301 300 299 300 301 306 309 309 311 313 313 307 298 292 301 311 314 319 322 322 324 326 325 325 320 321 325 324 323 324 325 324 322 322 324 323 325 326 327 327 329 327 326 326 324 324 325 325 323 323 324 324 324 325 324 323 320 321 324 326 329 329 329 326 325 328 330 329 329 331 332 333 333 335 336 336 336 339 343 340 344
299 301 300 302 298 298 299 297 296 301 305 310 313 314 316 309 300 297 306 314 315 314 318 320 322 324 325 325 325 324 325 325 324 323 323 323 323 322 321 321 324 326 329 329 329 327 325 324 324 324 324 326 326 325 325 326 326 325 323 322 322 324 324 323 324 326 328 328 329 328 327 327 329 329 330 332 333 332 331 333 336 335 334 337 337 338
298 299 297 298 300 300 300 296 294 290 306 312 314 314 315 308 305 311 316 317 318 316 317 318 320 322 324 325 325 324 323 323 322 322 323 323 323 322 323 323 323 324 326 328 327 327 325 324 323 323 324 323 323 323 323 324 324 323 323 322 323 325 327 326 326 324 325 327 327 328 328 328 327 329 330 330 332 331 330 330 332 333 335 336 337 336
304 298 296 299 303 295 295 293 293 302 308 314 314 306 310 312 314 316 316 313 318 319 320 322 320 322 322 324 324 324 323 322 321 322 322 323 323 322 323 324 325 325 324 326 327 327 326 327 325 324 325 324 325 325 325 324 322 322 321 321 324 325 326 327 327 327 325 325 324 325 325 326 326 328 327 327 328 329 330 329 330 332 333 335 335 334
307 305 306 299 304 303 299 303 308 312 312 313 315 314 315 316 316 316 317 315 315 317 321 322 323 323 324 323 323 324 323 324 322 322 321 320 321 322 323 324 324 324 324 324 324 326 326 324 323 322 322 323 325 326 327 326 324 324 322 323 325 325 324 324 325 325 324 324 323 324 323 323 325 325 325 324 325 326 326 328 329 327 330 332 333 333
309 311 312 312 304 309 311 312 313 314 315 313 314 316 316 316 315 317 317 316 318 321 321 322 324 323 323 324 323 323 323 325 324 322 322 321 321 322 324 325 325 325 325 325 325 324 324 323 322 321 320 321 323 324 325 324 324 323 323 324 325 325 325 325 324 324 323 324 324 323 323 322 321 321 322 323 324 324 324 323 324 326 327 327 327 329
310 310 308 304 307 304 299 312 313 312 314 315 314 315 318 318 317 317 317 317 319 322 324 325 326 325 324 324 323 324 324 325 324 323 322 321 321 322 323 324 326 326 325 324 325 324 323 322 320 320 319 319 320 322 323 324 324 324 324 324 324 324 325 325 324 323 323 323 324 324 324 323 322 321 321 322 321 321 322 321 322 323 325 325 324 324
305 312 307 307 306 304 306 310 313 314 315 316 316 316 315 316 317 318 318 319 320 323 324 324 325 325 325 324 324 324 323 323 323 323 322 323 323 323 322 324 326 325 326 326 325 325 324 322 321 320 320 320 321 322 322 323 323 324 324 324 325 324 324 324 323 323 323 322 322 322 322 319 316 319 318 318 319 319 319 320 321 321 322 323 322 322
311 310 303 307 305 308 309 311 312 314 314 315 315 316 317 317 318 317 317 317 317 318 321 322 323 324 325 324 324 323 321 321 322 323 323 323 324 324 324 325 326 327 327 326 326 325 324 323 322 322 320 319 320 321 321 322 322 323 323 323 324 324 322 320 319 320 319 319 319 318 320 319 319 318 317 318 320 318 319 320 322 323 323 321 320 319
308 304 309 306 303 302 304 308 310 304 305 311 314 316 317 318 319 318 318 317 316 317 318 319 320 322 323 324 324 323 321 322 322 324 324 324 325 325 325 325 325 326 325 325 325 326 324 324 323 322 321 321 322 321 321 321 322 322 321 322 322 322 322 321 320 320 320 321 319 318 318 319 317 317 317 316 317 321 320 313 309 314 321 320 316 309
306 309 307 303 303 304 310 313 313 312 311 314 315 316 318 318 318 317 317 317 317 318 318 318 318 319 321 322 323 323 323 323 322 322 322 323 324 326 326 325 324 323 323 324 324 324 323 322 321 321 320 321 322 320 320 320 320 320 319 321 322 321 321 321 319 318 319 320 319 316 318 317 318 319 320 318 318 319 318 320 316 301 303 311 313 305
Wind_Speed
9 9 11 10 11 13 12 12 2 1 4 6 4 3 4 8 5 6 9 11 11 10 8 9 5 7 10 11 11 12 12 11 11 12 11 12 12 12 12 12 12 13 13 12 13 13 13 12 11 9 9 9 9 8 9 9 9 8 8 8 8 7 7 6 6 6 5 5 5 5 5 5 6 4 4 4 4 5 5 5 5 5 5 5 4 4
11 9 12 12 12 14 9 4 1 2 2 6 6 7 5 2 5 7 5 8 10 6 8 8 8 10 11 11 12 10 12 13 13 13 14 14 13 12 13 13 13 12 11 13 13 13 13 11 12 10 9 10 11 9 9 9 9 9 8 8 8 7 7 6 6 5 5 4 4 4 4 5 6 5 4 4 4 4 6 5 4 4 4 5 4 4
10 12 11 13 4 4 5 6 4 2 4 5 6 4 8 7 2 1 3 3 5 5 5 12 12 7 9 9 11 13 14 12 13 13 14 14 14 12 12 12 12 13 12 13 13 13 12 13 13 11 10 10 10 11 10 9 9 9 8 7 8 7 8 7 6 6 5 4 3 2 3 2 5 3 3 4 4 3 6 6 5 4 4 4 4 4
10 11 13 11 7 7 6 4 5 2 2 8 5 5 7 7 6 5 2 5 1 2 2 6 6 8 9 8 10 11 12 10 10 10 11 12 13 13 14 13 13 14 13 14 14 15 14 13 12 11 10 10 10 10 10 10 10 9 8 8 8 7 7 7 7 6 6 5 3 2 1 2 1 4 4 4 4 3 4 6 6 4 4 4 4 4
8 9 8 10 10 8 9 8 7 6 6 2 6 9 6 10 5 4 6 6 6 5 3 7 6 7 7 10 8 9 10 10 9 7 10 12 11 11 11 12 13 14 14 14 15 14 14 14 14 12 11 11 10 10 10 10 10 8 10 9 9 7 7 7 7 7 5 5 5 3 2 3 3 3 4 4 5 5 4 4 5 5 4 4 3 4
7 4 9 11 11 10 10 8 9 6 5 5 1 2 7 8 7 4 5 8 6 5 9 7 6 7 12 13 11 10 9 10 11 13 10 11 12 12 13 13 13 13 13 14 15 14 14 14 13 13 12 11 11 10 10 10 10 9 10 10 9 8 7 7 8 8 6 6 5 4 4 5 4 4 4 4 5 5 5 5 5 6 5 5 4 3
1 10 9 11 12 11 10 8 9 7 3 5 5 3 5 6 6 4 6 7 6 5 10 13 6 2 4 11 11 11 12 13 12 15 15 12 12 13 13 13 13 13 13 13 13 14 15 15 14 14 13 12 11 11 10 10 10 10 10 10 10 8 7 8 8 9 7 6 5 6 5 4 4 4 3 2 1 3 4 3 5 5 5 4 3 4
5 8 11 12 13 11 10 9 9 7 4 3 3 4 4 7 7 11 8 8 2 4 6 9 9 6 5 8 13 14 14 14 15 15 17 15 14 14 13 14 14 14 14 13 13 14 14 14 14 14 14 12 11 11 11 10 10 11 10 11 10 8 8 8 8 9 8 6 6 6 5 4 3 3 3 3 3 2 2 3 3 4 4 4 2 2
10 7 11 13 13 11 10 7 10 8 5 3 1 3 5 6 8 7 7 7 4 3 5 7 8 6 4 8 11 14 13 14 16 16 17 17 17 16 15 14 15 15 14 14 13 14 14 15 14 14 13 13 12 11 11 10 10 10 10 10 10 9 8 8 10 9 9 7 6 6 5 4 3 2 3 4 3 3 3 3 3 2 3 4 3 2
8 8 8 10 11 10 9 6 8 7 4 3 2 2 1 3 5 6 6 5 4 6 6 7 9 6 3 7 6 9 10 14 15 17 17 18 17 16 15 15 15 14 14 14 14 14 14 14 14 14 13 13 11 10 10 11 10 11 10 11 11 10 8 8 10 10 10 9 7 6 5 5 4 3 2 2 3 3 3 3 3 3 2 3 4 4
6 3 1 7 10 8 10 7 9 8 4 5 4 5 3 2 1 3 4 3 5 8 5 8 11 7 3 8 8 10 10 12 11 13 14 16 15 17 15 16 15 14 14 13 14 13 14 13 13 13 14 12 11 10 10 10 10 11 11 11 11 10 8 9 10 10 10 10 8 7 6 6 5 4 3 3 3 3 3 3 4 4 3 2 2 3
7 8 8 6 4 3 5 8 7 7 8 8 6 5 4 3 1 5 4 4 7 7 5 4 9 8 6 5 5 8 4 9 12 15 18 19 16 16 13 14 15 15 14 14 13 14 15 14 14 13 13 13 12 11 11 10 10 10 11 11 12 11 10 9 9 10 10 10 9 8 7 7 6 5 4 4 4 4 4 4 3 3 2 2 3 2
8 8 6 7 7 8 8 8 8 8 10 11 8 7 6 2 4 6 7 9 9 5 5 3 6 7 8 1 4 9 8 7 9 11 16 20 20 17 17 16 14 14 16 15 14 14 14 14 13 13 13 12 12 11 11 11 11 10 10 12 12 11 11 10 10 10 10 10 10 9 8 7 6 5 5 4 4 4 3 3 3 4 3 3 2 2
8 9 11 8 9 11 10 10 10 11 11 13 11 10 9 6 6 9 7 5 6 6 4 3 4 7 2 4 3 6 9 7 7 8 13 18 20 19 16 15 14 14 15 15 15 14 13 13 13 13 12 12 11 12 12 12 10 9 9 11 12 12 11 10 10 10 10 10 9 9 8 7 6 6 6 5 5 5 3 3 3 4 4 4 4 3
8 11 12 13 10 12 13 11 9 8 12 12 11 11 10 9 6 8 7 9 7 6 6 7 5 2 7 6 5 3 4 6 6 6 10 15 18 18 15 16 16 15 14 13 14 14 14 14 14 13 12 12 12 13 12 11 10 10 10 11 12 12 12 11 11 10 11 9 10 9 8 7 7 7 6 6 5 4 5 4 5 4 3 4 3 3
9 5 6 19 8 15 14 14 8 10 9 11 10 9 12 13 11 10 5 4 6 6 6 8 5 1 1 4 6 4 6 6 7 8 10 14 14 15 12 12 15 14 14 14 14 14 16 14 14 13 12 12 12 12 11 12 11 11 10 11 12 12 12 12 11 11 10 10 9 9 9 9 8 6 6 5 5 4 4 4 3 4 4 3 2 3
6 9 8 10 12 12 15 13 13 7 9 11 11 14 12 7 10 9 8 11 11 6 8 3 7 6 7 7 7 6 5 7 8 10 11 12 14 16 14 10 12 13 13 13 13 14 15 14 14 13 13 12 12 11 11 11 12 12 12 12 12 12 11 12 12 12 11 10 10 10 10 9 9 9 8 7 8 8 7 5 5 5 6 5 3 3
6 5 11 10 13 13 14 14 14 14 9 6 12 11 8 5 8 8 9 7 9 9 6 7 9 8 7 4 1 5 7 7 9 11 12 13 14 17 15 14 10 11 13 12 12 13 14 14 14 13 12 12 12 11 11 12 12 11 11 12 13 12 12 12 12 12 11 10 10 10 10 10 9 8 9 8 7 7 6 6 5 5 5 5 5 4
4 7 8 10 9 13 10 11 15 14 16 8 8 9 12 11 13 9 6 10 11 11 7 7 8 9 8 4 6 7 7 8 10 11 12 13 14 17 16 14 14 13 12 13 12 12 12 12 12 12 12 11 11 11 11 12 11 10 11 11 11 13 13 13 11 11 10 10 9 9 10 10 9 8 8 7 7 6 6 7 6 6 5 5 4 4
5 8 6 8 10 13 12 13 14 13 15 13 8 10 11 8 11 12 11 9 6 8 8 8 10 8 8 1 8 6 7 9 10 11 12 13 14 14 16 15 13 13 12 12 13 12 12 12 12 12 11 11 11 10 10 10 10 11 11 11 11 10 10 11 11 10 11 11 10 9 9 9 9 8 7 7 7 7 7 6 6 6 6 6 4 5
4 2 6 9 5 12 11 11 13 13 14 14 12 9 10 10 6 9 9 13 9 8 8 8 9 7 5 5 5 8 7 8 10 10 9 10 12 14 15 15 12 9 9 11 11 11 12 12 12 11 10 9 9 9 9 9 10 10 10 10 11 11 12 12 11 10 10 9 10 10 9 9 9 9 8 9 8 8 7 6 6 6 5 4 5 4
4 5 8 7 11 10 9 12 15 15 15 13 13 12 10 11 12 9 10 8 10 8 5 7 8 4 6 3 4 6 6 7 8 8 8 8 11 12 12 15 15 9 5 6 6 6 9 9 10 9 7 8 8 8 9 8 9 9 10 9 10 10 10 10 10 10 9 9 9 10 9 9 8 8 8 9 9 9 8 7 7 6 5 6 5 5
6 5 6 8 7 10 5 10 8 7 10 15 13 12 11 11 10 10 10 10 9 10 8 7 8 3 2 2 1 3 5 6 8 8 8 7 10 12 12 14 15 14 10 7 6 6 4 5 5 1 5 8 9 8 9 9 9 9 9 9 9 9 10 10 10 9 8 8 8 10 9 9 8 8 9 9 9 10 9 9 8 7 7 7 7 6
3 4 6 7 5 1 4 5 5 6 6 13 15 13 11 13 13 12 10 8 8 9 9 8 9 2 5 3 2 3 3 1 5 8 8 8 8 9 12 13 13 13 11 8 8 8 7 4 1 2 1 3 5 6 8 8 7 7 8 9 8 10 9 9 7 8 8 8 8 8 8 7 7 8 9 9 8 9 9 8 8 8 8 8 7 7
6 3 6 7 7 7 7 7 11 11 9 9 11 13 9 7 12 13 11 6 8 12 10 11 12 6 5 4 4 6 6 5 6 6 5 7 6 8 10 12 12 12 10 9 8 8 8 7 7 6 4 2 2 2 3 5 6 6 8 8 8 8 8 7 6 5 5 5 5 6 6 7 7 7 7 7 6 8 8 8 8 7 7 7 8 8
5 3 4 9 11 11 12 12 14 14 14 10 4 2 6 10 9 7 9 6 6 8 13 11 9 6 8 6 7 7 7 7 6 7 5 5 7 8 9 10 11 11 10 10 9 8 7 6 5 4 4 3 2 2 1 1 1 3 3 5 6 7 8 8 7 7 7 7 7 6 5 6 7 8 8 8 8 8 8 8 8 8 7 8 8 8
2 1 2 3 3 2 3 6 5 3 10 11 9 8 7 10 8 9 8 10 10 7 8 10 10 6 8 10 9 10 10 9 10 9 8 7 6 5 5 8 9 9 10 12 12 10 9 8 7 6 5 5 5 6 6 6 5 4 3 2 3 5 7 8 8 9 9 9 9 8 8 7 6 6 6 7 7 7 7 9 9 9 8 7 8 8
4 1 4 5 7 7 5 5 5 2 7 5 8 9 6 9 9 12 11 8 7 7 9 10 9 11 7 12 11 11 11 8 7 9 8 7 7 6 7 7 7 8 9 9 9 10 8 7 7 7 6 4 4 4 4 4 4 6 6 8 9 8 7 6 7 9 9 8 8 8 7 6 5 5 6 6 6 6 7 7 8 8 7 6 7 8
2 2 2 2 7 7 6 7 7 7 7 6 5 4 6 7 8 14 11 3 3 8 5 0 8 11 5 10 11 9 8 8 5 6 7 8 8 8 9 9 10 10 10 10 10 8 7 6 4 4 4 5 5 5 5 4 4 3 5 7 10 11 11 9 9 10 10 8 8 7 6 6 5 4 4 5 5 5 6 6 6 6 6 7 7 7
1 5 0 1 8 8 7 6 5 9 9 10 9 7 5 5 4 2 2 4 2 2 2 2 5 8 6 9 9 10 8 9 8 6 6 6 8 8 9 10 10 11 11 10 7 5 5 5 5 5 4 3 4 5 5 4 5 5 7 9 11 10 8 8 9 9 8 8 8 6 6 7 6 7 5 5 5 4 4 5 5 5 6 7 7 7
4 4 2 3 4 8 9 7 5 10 10 13 12 11 8 6 6 6 6 8 5 4 4 7 9 9 7 7 10 9 7 8 8 8 6 6 7 8 8 9 9 9 8 8 8 8 7 6 4 4 4 3 4 6 2 4 4 6 5 3 6 7 7 8 10 10 9 9 7 7 6 5 6 8 8 8 6 4 5 7 6 5 5 6 7 7
6 2 2 4 4 7 5 3 7 5 11 13 14 13 12 8 7 8 8 9 7 5 4 4 6 5 6 9 8 8 9 8 8 9 8 6 7 7 8 8 10 9 8 7 8 9 9 7 6 5 4 5 7 7 4 5 5 5 4 3 3 2 2 5 6 8 8 8 9 8 8 7 7 9 9 8 8 8 8 7 6 6 7 6 7 7
4 4 5 5 5 4 5 4 2 6 6 7 11 10 9 8 8 10 10 10 10 8 4 1 5 3 8 8 9 8 8 7 9 9 8 8 7 7 7 8 10 11 10 9 8 8 8 8 7 6 7 7 6 6 5 5 6 6 4 2 1 4 4 5 7 7 7 8 9 9 9 11 11 11 10 9 9 9 8 9 8 8 7 9 8 7
4 5 5 1 5 3 2 6 7 7 9 5 5 6 6 9 9 10 11 11 11 9 6 3 4 6 9 8 9 10 10 8 7 7 8 8 7 8 8 7 8 9 9 8 8 7 8 7 7 8 8 8 8 8 7 7 7 6 5 6 7 8 7 7 8 6 4 2 1 3 6 8 8 8 8 8 8 8 8 10 10 8 7 8 8 8
4 6 2 0 4 4 5 6 4 5 6 6 3 7 4 4 6 13 13 13 11 9 7 6 5 7 7 5 9 8 6 9 8 7 7 7 7 7 7 7 7 9 9 7 8 9 8 8 9 9 9 8 8 7 8 8 8 8 8 8 9 9 9 9 8 7 6 7 7 7 7 6 3 2 3 7 9 8 8 8 8 8 6 6 6 7
3 7 4 3 0 2 2 2 2 3 5 3 4 8 6 3 4 3 14 14 12 10 9 9 7 5 5 10 11 8 8 11 10 6 6 6 5 6 5 6 7 7 8 7 9 9 8 8 9 10 9 7 7 8 9 9 8 9 10 10 11 11 10 10 9 9 8 8 9 9 9 7 7 6 5 5 2 7 6 5 5 5 6 5 5 5
4 2 5 4 1 4 4 2 3 3 5 3 2 6 8 6 7 6 7 10 10 9 8 7 5 5 6 10 10 10 10 9 9 5 6 6 4 6 7 7 8 11 10 7 7 8 8 8 9 11 9 8 7 8 9 9 10 10 9 10 11 11 10 10 10 9 9 9 8 8 8 7 7 7 7 6 6 6 5 4 4 3 1 3 4 4
3 4 2 4 4 3 6 5 3 4 5 5 5 3 3 3 6 6 3 10 9 8 5 5 5 4 5 6 8 9 9 8 6 5 5 7 7 9 9 8 7 8 9 8 8 8 10 10 10 11 11 11 10 9 8 9 10 10 9 10 10 10 10 10 10 9 9 8 8 8 8 7 6 7 7 7 7 7 6 5 5 4 2 1 1 4
1 2 3 7 4 7 6 7 5 6 1 5 6 5 6 4 3 2 5 7 8 8 4 3 3 3 4 7 8 8 7 6 7 7 6 7 8 8 10 9 9 9 9 8 8 9 10 10 12 13 12 12 11 8 10 10 10 10 10 9 9 9 11 10 9 9 9 9 8 7 7 7 7 7 6 7 7 6 6 5 4 2 2 2 1 3
3 4 6 7 5 7 8 7 5 1 4 5 7 7 7 3 3 3 6 4 7 8 5 3 3 2 3 4 5 5 1 3 6 8 8 9 9 10 9 9 9 9 8 9 9 9 11 11 12 12 12 11 9 7 7 6 6 9 8 7 6 8 10 8 7 8 8 6 5 5 6 7 7 7 6 7 6 6 5 4 3 3 3 3 1 1
1 2 4 4 6 5 5 4 5 5 5 6 6 8 5 2 3 4 1 5 6 6 5 2 3 3 2 4 2 3 3 3 8 9 9 8 7 7 9 8 7 7 8 10 9 9 9 8 8 10 11 9 9 8 7 6 7 8 7 7 7 9 10 7 6 7 7 5 5 7 7 6 6 6 6 6 5 5 5 4 5 4 2 2 3 6
2 0 1 2 2 4 7 6 3 6 4 6 5 5 2 3 3 3 3 1 4 4 4 5 2 2 2 5 3 3 5 8 10 9 9 8 8 7 9 10 7 9 7 9 10 8 8 8 9 10 10 9 9 8 7 7 8 8 7 8 9 9 8 8 7 6 7 6 6 6 6 6 6 7 5 5 6 5 5 5 4 2 2 1 5 6
4 3 3 2 2 1 3 3 4 2 5 8 11 4 5 5 6 2 1 4 4 2 2 2 3 2 0 6 5 7 9 8 7 7 7 7 6 7 8 9 9 9 8 8 8 9 9 8 8 9 9 8 8 7 7 8 9 8 8 8 8 7 7 7 7 7 6 5 6 6 6 5 5 5 4 5 5 5 5 5 6 5 3 4 4 6
3 3 3 3 4 1 5 2 2 6 5 9 8 5 7 7 4 4 4 5 4 4 1 2 0 2 2 2 5 7 10 10 8 7 7 7 7 7 6 7 8 9 10 10 9 8 10 8 7 7 7 7 7 7 7 8 8 8 9 8 6 7 7 7 7 7 6 6 5 5 4 4 6 5 4 5 5 4 5 5 4 4 3 2 3 4
4 5 6 3 5 5 5 6 6 4 4 5 6 6 5 4 3 4 5 4 6 6 4 3 3 1 0 2 5 7 8 7 8 10 8 7 7 7 7 7 8 9 9 10 10 10 9 9 9 7 8 6 7 6 6 7 8 9 9 7 6 6 6 6 6 5 6 5 5 5 4 4 4 4 4 5 4 5 5 5 4 4 3 1 2 2
2 3 2 3 5 5 6 6 4 5 5 5 5 4 4 4 4 4 6 6 6 5 5 5 4 2 1 1 1 4 5 8 9 10 9 8 8 7 7 8 7 8 10 10 10 9 9 8 8 8 8 7 6 6 6 6 7 9 8 6 6 6 5 5 6 6 5 5 4 4 3 4 4 4 5 5 4 3 4 4 3 3 1 1 1 1
4 2 3 1 5 4 4 5 5 6 5 4 4 4 3 3 4 4 5 5 6 6 5 4 4 2 1 0 2 1 3 6 8 8 8 8 8 8 7 8 8 8 9 10 11 10 9 9 9 8 8 8 6 6 7 7 7 7 7 6 6 6 5 5 5 5 4 4 4 4 3 3 2 2 3 2 1 1 2 1 0 1 0 1 1 1
6 4 4 2 3 1 6 7 5 5 4 3 2 4 5 5 5 5 4 4 4 4 4 4 2 2 1 1 1 2 3 5 8 8 9 8 8 8 8 7 8 8 8 9 10 9 9 8 8 8 8 7 6 6 6 6 6 6 5 5 5 6 5 4 3 4 4 4 4 3 3 3 2 0 2 3 3 3 2 2 1 1 2 3 3 1
6 5 1 3 2 5 5 5 4 4 4 6 5 5 5 4 4 5 5 5 5 6 5 4 4 3 2 2 1 2 4 5 7 8 9 8 7 8 8 8 8 8 9 10 9 8 8 9 9 9 8 7 6 6 6 6 5 5 4 4 4 4 4 5 4 3 3 2 2 3 1 2 2 2 2 2 2 3 4 5 4 3 4 7 6 7
4 5 4 3 3 4 1 6 6 4 4 6 5 6 6 5 3 5 5 5 6 6 6 5 4 3 2 2 1 3 4 5 6 7 8 8 8 8 8 8 8 9 9 9 8 7 8 8 9 10 9 7 6 6 5 5 4 4 4 4 4 4 4 4 3 3 2 2 2 3 2 2 3 3 2 2 1 2 5 7 7 6 6 5 8 8
5 2 3 4 3 2 7 6 3 1 2 5 6 5 5 3 3 4 5 5 5 5 5 5 4 3 2 1 0 2 3 4 6 7 7 6 7 8 8 10 10 10 9 9 8 8 8 8 7 8 9 8 7 6 5 4 4 4 4 4 4 4 4 2 2 2 3 3 3 4 3 2 2 2 1 1 1 2 0 5 7 7 7 7 4 5
Wind_Direction
175 194 192 200 197 200 203 216 305 36 303 102 182 156 157 344 132 80 118 143 165 162 187 189 205 147 166 172 170 173 177 190 180 179 180 180 175 178 180 175 177 177 178 170 175 172 172 169 167 169 168 167 165 166 160 169 167 167 168 159 164 165 164 165 169 174 175 166 166 165 170 156 151 152 142 163 147 149 114 111 114 147 140 139 139 140
202 208 201 202 203 198 196 210 250 271 198 179 189 177 113 145 20 311 90 152 123 139 177 159 186 195 158 165 167 176 182 193 188 183 186 185 179 180 182 177 178 175 175 168 170 174 172 172 168 168 169 168 168 172 170 176 173 171 173 168 166 165 169 174 175 169 177 170 168 168 167 157 141 147 166 146 165 134 123 128 136 147 122 138 143 140
203 217 190 200 169 138 144 191 213 291 189 162 186 165 148 177 298 139 38 84 144 222 130 182 195 170 154 163 175 174 192 193 193 191 188 187 182 180 182 180 176 178 178 171 170 174 174 173 170 170 173 174 175 174 176 177 175 173 176 172 170 171 172 176 174 173 172 173 171 166 147 157 131 135 129 118 109 133 131 139 136 124 133 153 145 149
196 213 202 164 169 184 161 186 201 189 244 194 113 212 178 151 182 158 158 148 140 260 131 227 202 159 148 175 176 186 192 195 206 189 209 191 188 186 183 179 179 179 177 176 175 175 176 173 172 172 176 177 179 175 178 178 177 176 176 172 175 171 179 174 174 182 170 162 150 122 46 62 67 125 116 120 138 131 133 140 142 143 150 160 162 155
203 199 157 161 179 195 184 177 194 203 189 254 166 139 270 166 187 333 160 166 161 216 202 202 220 166 179 174 180 186 188 190 199 233 219 194 196 192 185 183 183 179 178 179 179 178 176 175 175 176 177 177 182 181 180 183 177 180 175 173 174 173 178 177 168 178 169 159 164 166 149 158 132 137 154 157 154 151 149 157 154 145 157 157 166 152
184 47 136 180 178 195 199 183 196 203 210 170 286 80 154 154 114 242 143 164 184 185 219 196 211 215 178 190 179 166 186 198 188 198 214 202 194 191 191 188 182 184 180 183 181 180 177 177 173 176 180 183 183 184 183 187 177 181 171 171 174 172 178 179 171 177 176 176 174 171 172 168 173 159 167 164 161 161 169 166 139 140 165 159 167 164
128 155 189 183 182 189 211 207 170 209 194 205 116 192 113 113 148 128 197 206 186 227 167 202 235 133 141 180 181 174 183 195 183 202 200 201 199 194 195 190 184 184 182 186 184 183 180 179 177 180 184 187 187 182 185 187 178 180 170 171 175 173 176 176 171 177 183 181 186 190 187 179 173 176 151 164 133 140 150 129 142 140 148 161 181 167
124 169 188 186 186 194 199 210 160 183 189 173 51 242 171 145 144 169 203 231 274 55 111 206 213 266 182 174 175 170 184 193 196 198 198 200 198 199 198 191 186 187 185 184 188 186 186 180 181 184 182 190 189 185 183 186 180 176 172 170 175 174 176 176 171 179 185 188 190 197 201 190 187 178 142 152 159 128 113 139 152 147 145 150 186 162
171 153 186 181 192 197 201 211 143 184 216 55 66 236 199 191 170 187 206 218 251 234 188 198 202 232 256 103 156 171 190 195 199 198 197 197 198 199 200 194 189 189 188 186 187 186 188 181 185 184 184 188 190 187 184 186 180 174 172 172 175 175 177 173 174 180 184 192 191 197 198 189 185 180 157 153 152 146 160 148 140 154 136 145 158 187
200 188 170 191 194 198 203 171 140 149 177 55 169 205 96 155 200 208 222 232 227 242 226 187 186 242 162 127 154 180 207 203 201 197 196 194 194 197 199 197 192 189 188 190 189 187 187 184 187 185 186 188 190 184 185 186 180 177 175 175 175 177 181 175 177 182 183 191 193 198 209 192 183 178 153 165 135 156 159 166 153 149 162 173 163 166
102 51 6 198 195 198 191 152 151 186 158 159 159 126 137 148 173 214 263 241 242 234 233 173 187 231 231 171 181 182 211 212 201 195 190 193 197 198 200 194 191 187 188 189 188 187 186 187 189 184 189 186 185 186 182 187 182 181 181 177 179 180 184 179 182 183 185 190 195 199 201 202 191 184 172 176 171 170 172 177 171 163 163 186 167 176
173 155 189 193 253 39 175 150 173 176 160 182 161 160 108 65 231 223 196 219 239 225 109 163 188 201 245 148 171 183 168 200 197 192 187 188 190 198 198 202 193 186 186 187 188 188 185 188 192 188 190 185 187 186 180 187 184 186 182 180 181 181 185 185 186 189 190 192 193 200 198 203 205 194 189 192 189 184 182 182 173 159 153 171 168 195
196 190 170 162 205 197 183 178 162 181 183 204 177 162 191 27 284 223 192 214 217 227 124 185 181 203 231 307 115 165 187 187 200 192 188 185 189 189 195 197 189 189 186 186 189 191 189 190 192 195 192 189 186 189 186 189 187 184 183 184 184 184 186 189 191 194 197 197 195 197 198 200 204 201 203 202 201 191 191 190 175 170 176 168 182 183
195 201 176 182 176 207 213 197 159 191 190 205 197 175 172 186 226 241 224 242 245 174 146 174 157 249 75 220 177 173 185 194 192 194 184 181 184 185 189 195 191 188 189 188 188 192 192 190 194 198 196 190 189 192 190 191 189 184 185 185 189 187 188 190 196 197 200 204 201 197 199 199 196 204 205 206 204 193 190 188 211 196 179 172 195 163
198 187 197 189 196 177 212 228 169 200 184 208 202 188 182 180 197 227 227 220 217 249 188 130 207 201 210 125 146 159 160 196 201 192 173 177 180 180 178 193 198 191 189 187 189 190 192 193 195 196 196 193 194 195 192 193 190 187 189 185 189 190 189 193 197 199 203 205 207 202 203 202 199 200 204 207 212 201 194 203 183 206 208 192 175 174
235 245 156 186 199 172 204 216 231 189 189 205 214 204 206 194 190 233 259 251 253 195 181 180 237 114 74 154 126 166 163 180 185 183 161 167 172 169 171 194 193 192 188 187 188 189 191 195 196 198 196 197 197 196 194 191 187 191 188 185 189 189 190 194 197 201 203 207 206 206 206 205 204 204 207 203 208 213 220 205 219 181 215 235 162 189
169 238 110 173 212 184 200 199 214 222 202 180 206 212 212 211 212 216 226 234 254 266 235 154 236 239 122 188 168 182 184 173 183 182 171 166 171 167 174 178 197 194 189 187 188 188 189 193 197 200 199 198 199 196 194 189 185 187 184 184 187 190 191 193 195 201 205 204 208 207 208 210 205 205 211 210 205 217 208 215 212 201 200 191 210 203
294 189 151 179 190 202 207 201 210 206 263 147 209 207 206 242 295 243 232 195 232 234 221 207 220 227 208 184 119 189 196 168 174 182 171 161 173 176 175 179 180 186 193 191 189 190 189 191 196 199 200 202 200 194 191 189 189 188 188 186 186 187 193 196 197 202 201 203 206 206 209 213 218 214 216 221 215 214 216 203 219 215 194 204 200 217
255 263 186 183 190 185 206 206 206 211 223 227 222 189 209 185 211 210 251 223 217 221 228 209 234 245 239 173 166 172 180 158 165 169 165 164 175 182 176 174 178 185 192 191 193 191 190 189 193 197 199 198 199 197 192 190 189 188 191 190 189 193 193 198 202 203 204 203 206 205 207 211 214 224 228 225 220 216 216 223 200 215 206 209 198 195
224 264 150 155 208 164 191 199 207 192 200 233 287 234 199 228 216 212 212 252 249 241 235 208 205 235 208 274 154 177 148 151 156 166 172 167 172 175 176 172 172 177 186 189 191 189 186 189 194 195 194 193 193 194 192 190 191 191 190 187 189 193 194 202 207 201 206 206 210 206 200 207 214 216 228 230 221 216 214 217 223 215 205 212 211 203
244 225 271 132 129 151 197 196 209 190 189 195 213 217 190 232 252 243 217 227 232 239 229 244 223 220 82 20 83 124 143 150 159 164 167 169 169 170 172 172 166 156 173 185 192 190 188 192 193 190 190 190 189 188 188 187 192 191 191 189 189 189 195 200 207 201 205 207 208 211 207 206 203 212 213 221 216 226 225 225 227 223 232 197 217 221
262 214 249 167 188 197 202 190 215 203 194 198 202 214 210 201 209 210 221 210 232 232 231 233 241 95 60 47 84 126 131 148 152 161 164 168 166 164 165 166 173 158 119 103 116 152 174 179 186 178 181 190 184 182 182 182 185 189 193 190 192 195 196 196 199 198 200 207 205 212 207 216 209 210 215 217 215 215 220 227 219 222 229 228 210 218
324 293 267 233 202 193 204 156 217 325 211 203 198 214 207 214 218 217 229 203 211 227 245 257 270 145 72 68 84 118 136 150 166 159 164 165 163 172 166 166 168 166 154 140 117 82 67 106 109 124 191 193 192 187 188 186 191 193 191 192 190 200 195 198 194 193 194 199 200 207 210 212 210 210 215 220 217 212 214 210 217 215 220 229 231 204
285 243 226 246 267 300 124 144 208 250 215 210 206 225 207 215 213 230 229 230 233 219 214 218 236 167 104 95 151 82 103 118 154 158 161 155 157 166 171 164 166 162 165 148 128 140 180 185 123 73 266 210 205 190 194 195 191 191 193 194 194 201 197 195 194 190 192 194 195 198 206 210 220 220 223 219 221 221 221 223 214 205 216 225 232 221
271 146 271 214 216 184 176 179 198 199 217 224 212 206 243 249 222 231 244 238 222 222 217 232 235 202 111 147 132 149 144 149 152 135 143 143 148 165 166 166 173 173 160 153 147 165 160 153 162 175 196 160 116 157 205 210 194 199 199 196 193 193 188 182 181 176 179 189 196 195 197 200 208 219 225 234 242 242 231 228 232 222 224 229 230 232
289 357 286 223 202 192 182 183 183 183 206 203 246 127 219 237 224 218 224 207 238 228 212 226 234 87 125 152 151 156 156 151 130 123 100 111 152 164 170 160 162 174 172 166 159 154 160 151 132 136 139 165 212 247 298 317 211 199 207 201 209 193 183 178 177 176 176 172 174 174 191 208 211 212 216 221 226 232 244 243 235 233 224 224 236 232
348 345 13 7 296 281 42 8 23 279 162 203 174 216 198 223 245 245 246 234 221 218 221 226 243 151 162 165 163 165 169 162 147 138 139 138 137 135 160 169 168 167 170 173 169 163 156 154 150 148 153 165 178 190 203 211 209 183 169 264 245 203 185 180 177 179 183 184 188 183 194 206 213 215 211 212 220 221 226 233 236 235 234 224 225 227
305 222 43 81 79 74 89 59 68 144 175 164 180 184 188 202 213 228 230 248 244 237 237 221 223 243 174 160 161 165 166 145 147 142 135 138 138 145 111 101 131 154 154 156 158 150 141 150 161 163 163 157 162 175 178 173 191 196 190 208 221 216 200 180 175 190 187 181 183 190 192 201 212 214 209 201 206 213 221 226 230 234 238 244 232 229
341 262 359 152 88 98 86 83 96 105 113 123 119 142 178 183 202 223 230 23 341 234 271 72 189 222 135 152 152 155 148 150 147 137 137 139 141 141 139 135 130 124 123 124 124 123 140 151 139 140 156 167 175 183 174 194 210 156 157 200 221 222 210 191 190 197 194 189 191 192 179 167 191 217 199 176 172 194 218 226 226 223 227 222 233 235
154 247 232 105 111 102 107 122 121 108 108 93 82 84 98 134 122 178 116 25 38 34 16 165 85 77 96 126 140 140 164 156 144 123 125 138 145 144 147 153 149 147 135 127 134 126 138 152 167 179 161 169 168 158 162 186 203 190 197 205 213 215 206 189 186 195 193 190 201 191 184 179 176 186 198 188 178 186 207 229 241 232 220 226 227 235
248 157 310 283 149 109 114 127 136 124 99 86 67 59 65 91 81 58 42 31 347 77 45 115 107 92 72 93 113 136 155 128 134 138 136 131 137 144 141 142 137 112 117 135 173 171 165 168 170 160 169 156 131 110 178 199 187 194 197 212 218 215 201 200 194 197 199 198 193 188 179 179 190 197 208 208 203 190 207 223 230 234 237 232 229 235
253 177 199 291 194 145 102 136 144 142 114 83 56 41 41 46 70 49 48 26 20 22 22 154 149 117 108 108 117 136 134 142 139 133 128 128 138 143 142 135 120 119 138 156 157 132 132 137 139 141 132 104 82 88 115 151 178 188 193 175 192 182 176 191 204 205 208 209 195 183 196 191 199 205 214 209 209 210 212 216 224 227 223 228 228 221
256 289 224 221 233 141 134 11 342 185 183 99 34 24 14 55 87 85 63 41 30 336 298 243 50 36 121 125 129 136 144 146 143 142 133 133 135 136 128 127 130 147 145 137 127 125 120 113 107 99 88 80 92 108 106 100 91 73 75 103 173 201 210 215 215 212 212 212 213 208 210 202 202 211 215 215 216 212 210 212 211 214 216 218 224 230
252 228 216 25 245 193 96 339 311 218 189 75 28 4 9 39 53 68 47 38 35 17 33 9 27 101 136 156 154 148 150 151 137 132 136 134 135 130 127 130 129 122 127 127 122 108 95 95 93 91 90 90 89 85 85 87 87 85 80 74 67 70 69 73 64 53 53 76 100 216 212 215 213 214 214 212 213 212 215 212 208 203 211 214 216 221
246 219 220 80 244 249 360 304 260 156 90 87 56 30 13 42 67 72 63 47 35 32 51 78 111 135 143 166 131 139 122 116 116 127 128 122 124 129 131 129 126 118 111 122 116 106 99 97 98 91 86 85 89 90 89 82 86 93 91 86 80 71 68 65 61 57 59 56 46 45 50 65 59 151 221 225 217 219 214 209 203 183 197 221 208 205
250 212 178 186 331 39 295 346 231 91 79 150 79 27 3 236 61 183 70 45 35 33 51 63 62 91 128 115 120 133 132 102 93 83 102 112 115 115 118 113 112 117 118 117 114 110 123 116 101 96 92 88 83 81 79 77 76 86 84 78 74 70 68 68 60 57 51 49 49 47 41 55 84 87 80 58 159 177 159 150 163 162 162 186 192 194
313 267 227 175 228 205 164 182 19 156 175 134 130 23 7 13 355 358 60 43 29 37 42 63 83 92 115 124 124 139 130 121 90 62 81 66 77 107 105 108 99 94 96 118 117 110 99 106 108 108 105 94 87 88 89 86 77 70 67 69 76 74 69 65 59 51 53 56 49 49 52 58 60 66 53 53 49 50 65 116 117 81 305 178 158 138
325 273 185 234 160 288 161 135 195 224 216 132 76 19 6 349 321 308 290 81 24 26 33 43 70 109 132 138 141 147 156 132 101 100 91 96 81 77 80 83 89 95 100 108 105 110 110 106 109 110 109 102 91 90 93 92 87 85 79 74 74 75 69 65 70 65 55 46 45 50 59 65 67 64 60 52 40 40 42 37 36 46 39 331 145 154
191 240 222 230 159 198 198 179 177 201 132 27 33 7 26 357 306 323 249 81 21 9 38 352 79 124 138 156 152 168 169 163 122 118 107 104 97 100 102 96 97 107 116 120 125 126 122 113 109 106 101 99 95 96 98 99 99 89 77 72 71 74 80 74 70 67 65 59 44 46 56 53 54 58 53 51 53 53 44 43 50 21 5 32 34 29
187 188 184 206 189 195 208 195 189 55 64 25 9 354 4 41 214 234 234 126 5 354 14 2 75 90 128 151 173 152 253 257 141 106 98 84 77 71 73 90 102 104 107 112 114 111 112 117 120 117 116 113 112 115 106 90 81 91 102 105 108 94 85 85 97 102 100 96 82 52 60 72 62 45 46 55 57 52 53 44 55 38 351 0 358 88
160 174 247 210 195 163 226 173 109 120 91 16 352 343 354 6 286 238 337 37 344 332 349 344 55 64 95 139 158 142 60 76 110 134 143 129 110 92 82 59 71 93 107 114 109 118 122 123 116 110 109 109 116 114 114 113 103 97 98 103 101 96 102 95 74 77 77 84 92 91 84 79 83 77 53 59 65 72 64 58 58 50 9 334 116 83
150 215 136 266 209 183 194 211 164 79 48 326 332 335 8 260 229 60 62 278 330 330 346 320 4 81 112 137 133 88 112 107 133 140 137 146 139 129 133 121 105 98 92 115 128 124 108 105 109 109 108 113 115 114 112 109 101 98 97 96 96 98 104 117 117 89 85 87 83 81 79 68 55 59 59 47 62 64 73 76 76 65 79 89 99 101
29 277 147 149 96 167 206 161 160 178 70 360 326 252 18 318 70 29 35 78 8 11 303 325 317 58 60 129 116 104 109 123 129 135 138 138 141 141 136 133 137 133 132 127 128 124 126 126 128 122 119 113 104 104 107 104 99 99 98 95 91 92 96 101 106 114 103 81 81 83 83 90 77 57 59 51 50 63 61 66 72 64 71 102 123 138
6 281 122 88 356 283 189 169 63 45 28 6 0 57 47 55 31 20 331 54 40 26 32 147 239 2 351 67 128 140 130 140 149 148 149 144 146 138 136 146 145 139 148 144 131 125 115 112 107 101 90 90 100 108 111 111 109 106 103 99 100 99 105 104 101 103 108 112 103 87 73 75 90 79 74 50 42 57 67 67 67 65 52 63 124 138
35 8 359 24 44 345 37 67 89 74 58 39 39 64 55 40 29 5 352 19 19 34 2 338 87 129 183 104 120 128 142 177 166 165 160 150 151 152 154 158 150 149 141 136 135 134 134 130 125 115 108 99 94 90 96 108 114 114 107 107 109 105 101 102 104 104 98 89 84 79 74 63 50 63 66 80 32 27 33 43 48 61 31 37 86 97
118 350 318 281 93 101 72 53 108 107 83 88 77 51 46 44 41 14 10 22 33 17 358 6 8 45 79 305 159 156 165 171 173 174 165 161 164 161 158 154 153 145 131 127 127 129 128 128 122 117 108 103 104 104 104 108 112 110 109 110 106 105 103 102 100 95 90 87 82 80 84 83 79 65 52 51 63 68 29 9 21 45 53 38 73 55
125 198 242 240 110 214 122 140 113 105 118 101 102 91 82 58 40 26 39 31 29 16 26 21 12 36 9 325 267 182 163 160 173 167 153 169 180 170 166 157 152 154 151 146 139 144 144 133 131 127 119 114 108 107 109 110 110 112 118 121 119 109 105 101 97 97 94 91 91 85 62 48 49 68 77 62 101 108 125 135 299 119 99 71 57 85
160 180 248 100 181 290 97 116 107 114 118 119 136 138 115 91 71 59 51 46 46 49 39 38 7 55 5 220 254 230 183 176 176 164 167 176 178 181 183 169 159 157 153 144 142 143 136 135 130 127 123 118 115 111 113 116 116 122 124 120 114 114 122 118 116 119 122 129 134 128 128 108 96 343 76 52 13 27 31 42 342 45 55 35 19 7
83 183 191 120 218 110 137 137 130 146 152 140 117 73 71 78 96 84 68 60 55 55 64 72 28 28 11 12 185 203 194 190 188 180 182 175 178 183 186 177 166 156 146 148 144 147 142 139 133 131 130 124 128 125 120 118 121 121 123 120 110 112 107 103 103 88 96 96 90 82 66 102 90 58 66 98 117 79 28 1 0 16 58 55 30 13
187 222 109 211 221 223 239 145 162 225 167 151 123 106 98 86 70 79 72 58 49 45 36 40 66 69 16 24 219 191 196 192 199 192 199 193 189 181 179 175 171 164 160 150 147 142 133 134 135 136 131 132 135 129 131 139 138 149 132 124 117 113 110 114 117 118 98 87 76 70 60 35 67 56 12 35 49 126 122 77 50 29 4 71 55 45
230 181 197 226 250 35 83 116 162 310 11 76 107 112 105 78 69 69 60 53 52 48 30 20 26 57 67 69 343 233 198 208 203 201 206 208 199 186 182 178 176 173 169 160 152 145 138 136 139 138 138 141 144 138 142 145 143 130 111 101 105 110 107 109 108 121 120 100 65 31 7 25 32 57 48 24 14 359 44 157 123 101 76 54 46 30